Location: Unspecified
(0.0000°N, 0.0000°E)
Time: 12:10:13
(UTC+00:00)

S-56A Canister/Altair - Pass Details

Date: 01 June 2024
Orbit: 637 x 2489 km, 38.9° (Epoch: 17 June)

Event Time Altitude Azimuth Distance (km) Brightness Sun altitude
Rises 10:01:06 0° 330° (NNW) 4,594 11.6 53.9°
Reaches altitude 10° 10:05:29 10° 345° (NNW) 3,245 11.1 54.8°
Maximum altitude 10:10:59 21° 31° (NNE) 2,089 10.8 55.8°
Drops below altitude 10° 10:15:18 10° 79° (E) 2,457 10.7 56.6°
Sets 10:18:03 0° 96° (E) 3,207 11.0 57.1°
